| time (UTC) | temp F | wind direction | speed knots | gust knots | rain 1hr in | rain 24hr in | rain mn in | humidity % | barometer mb |
| 20260508021551 | 49 | 259 | 7.8 | 15.6 | 0.00 | 0.00 | 0.00 | 79 | 1020.8 |
| 20260508020050 | 49 | 235 | 8.7 | 20.0 | 0.00 | 0.00 | 0.00 | 80 | 1020.7 |
| 20260508014545 | 49 | 263 | 8.7 | 20.9 | 0.00 | 0.00 | 0.00 | 80 | 1021.1 |
| 20260508013043 | 48 | 253 | 7.8 | 14.8 | 0.00 | 0.00 | 0.00 | 80 | 1021.6 |
| 20260508011545 | 48 | 240 | 7.8 | 20.0 | 0.00 | 0.00 | 0.00 | 80 | 1021.7 |
| 20260508010040 | 48 | 278 | 7.8 | 16.5 | 0.00 | 0.00 | 0.00 | 81 | 1021.8 |
| 20260508004540 | 47 | 245 | 7.8 | 18.2 | 0.00 | 0.00 | 0.00 | 82 | 1022.0 |
| 20260508003035 | 47 | 213 | 4.3 | 13.9 | 0.00 | 0.00 | 0.00 | 84 | 1021.9 |
| 20260508001534 | 45 | 255 | 3.5 | 13.0 | 0.00 | 0.00 | 0.00 | 85 | 1022.2 |
| 20260508000030 | 45 | 213 | 3.5 | 12.2 | 0.00 | 0.00 | 0.00 | 85 | 1022.3 |
| 20260507234533 | 45 | 322 | 5.2 | 14.8 | 0.00 | 0.00 | 0.00 | 85 | 1022.2 |
| 20260507233033 | 44 | 292 | 3.5 | 9.6 | 0.00 | 0.00 | 0.00 | 86 | 1022.2 |
| 20260507231523 | 44 | 284 | 4.3 | 9.6 | 0.00 | 0.00 | 0.00 | 87 | 1022.1 |
| 20260507224522 | 43 | 18 | 1.7 | 7.8 | 0.00 | 0.00 | 0.00 | 89 | 1022.0 |
| 20260507223017 | 42 | 349 | 4.3 | 12.2 | 0.00 | 0.00 | 0.00 | 89 | 1021.5 |
| 20260507221518 | 42 | 337 | 1.7 | 12.2 | 0.00 | 0.00 | 0.00 | 89 | 1021.6 |
| 20260507220014 | 42 | 301 | 4.3 | 13.0 | 0.00 | 0.00 | 0.00 | 89 | 1021.0 |
| 20260507074534 | 43 | 254 | 2.6 | 7.0 | 0.00 | 0.00 | 0.00 | 67 | 1020.3 |
| 20260507071548 | 44 | 243 | 2.6 | 7.8 | 0.00 | 0.00 | 0.00 | 65 | 1020.0 |
| 20260507060035 | 47 | 190 | 4.3 | 9.6 | 0.00 | 0.00 | 0.00 | 55 | 1018.9 |
| 20260507054536 | 48 | 178 | 4.3 | 9.6 | 0.00 | 0.00 | 0.00 | 56 | 1018.7 |
| 20260507053023 | 49 | 243 | 0.9 | 9.6 | 0.00 | 0.00 | 0.00 | 55 | 1018.5 |
| 20260507050044 | 48 | 244 | 2.6 | 11.3 | 0.00 | 0.00 | 0.00 | 55 | 1018.2 |
| 20260507044523 | 49 | 232 | 5.2 | 11.3 | 0.00 | 0.00 | 0.00 | 53 | 1018.0 |
| 20260507043019 | 49 | 173 | 3.5 | 9.6 | 0.00 | 0.00 | 0.00 | 53 | 1017.7 |
| 20260507041517 | 49 | 242 | 3.5 | 9.6 | 0.00 | 0.00 | 0.00 | 52 | 1017.5 |
| 20260507040022 | 49 | 202 | 0.9 | 12.2 | 0.00 | 0.00 | 0.00 | 53 | 1017.5 |
| 20260507034519 | 49 | 219 | 4.3 | 12.2 | 0.00 | 0.00 | 0.00 | 53 | 1017.4 |
| 20260507033021 | 49 | 243 | 5.2 | 13.0 | 0.00 | 0.00 | 0.00 | 52 | 1017.3 |
| 20260507031515 | 49 | 220 | 4.3 | 11.3 | 0.00 | 0.00 | 0.00 | 53 | 1017.2 |
| 20260507030011 | 48 | 230 | 3.5 | 11.3 | 0.00 | 0.00 | 0.00 | 55 | 1017.1 |
| 20260507024515 | 48 | 211 | 2.6 | 10.4 | 0.00 | 0.00 | 0.00 | 55 | 1017.2 |
| 20260507023010 | 48 | 216 | 1.7 | 8.7 | 0.00 | 0.00 | 0.00 | 56 | 1017.3 |